Weather History for Hawthorne, CA

Change the Weather History Date:

Thursday, February 21, 2013

  Actual Average Record
Temperature  
Mean Temperature 54 °F -  
Max Temperature 62 °F 67 °F 89 °F (2002)
Min Temperature 46 °F 49 °F 40 °F (1948)
Degree Days  
Heating Degree Days 11    
Growing Degree Days 4 (Base 50)    
Moisture  
Dew Point 37 °F    
Average Humidity 55    
Maximum Humidity 74    
Minimum Humidity 34    
Precipitation  
Precipitation 0.00 in - - ()
Sea Level Pressure  
Sea Level Pressure 30.03 in    
Wind  
Wind Speed 3 mph (NE)    
Max Wind Speed 14 mph    
Max Gust Speed -    
Visibility 10 miles    
Events      
Averages and records for this station are not official NWS values.
T = Trace of Precipitation, MM = Missing Value Source: NWS Daily Summary

Daily Weather History Graph

Daily Weather History Graph

Search for Another Location

Airport:

Trip Planner

Search our weather history database for the weather conditions in past years. The results will help you decide how hot, cold, wet, or windy it might be!

Date:

Astronomy

Feb. 21, 2013 Rise Set
Actual Time 6:31 AM PST 5:43 PM PST
Civil Twilight 6:05 AM PST 6:08 PM PST
Nautical Twilight 5:36 AM PST 6:37 PM PST
Astronomical Twilight 5:07 AM PST 7:06 PM PST
Moon 2:09 PM PST (2/21) 3:31 AM PST (2/21)
Length of Visible Light 12h 02m
Length of Day
11h 12m
Waxing Gibbous, 84% of the Moon is Illuminated
Feb 21
Waxing Gibbous
Feb 25
Full
Mar 4
Last Quarter
Mar 11
New
Mar 19
First Quarter

Hourly Weather History & Observations

Time (PST) Temp. Dew Point Humidity Pressure Visibility Wind Dir Wind Speed Gust Speed Precip Events Conditions
12:53 AM 48.9 °F 36.0 °F 61% 30.02 in 10.0 mi Calm Calm - N/A   Clear
1:53 AM 46.9 °F 37.9 °F 71% 30.02 in 10.0 mi Calm Calm - N/A   Clear
2:53 AM 48.0 °F 39.0 °F 71% 30.00 in 10.0 mi Variable 3.5 mph - N/A   Clear
3:53 AM 46.9 °F 39.0 °F 74% 30.01 in 10.0 mi NNE 3.5 mph - N/A   Clear
4:53 AM 46.0 °F 37.9 °F 73% 30.01 in 10.0 mi Calm Calm - N/A   Clear
5:53 AM 46.0 °F 37.9 °F 73% 30.02 in 10.0 mi Calm Calm - N/A   Clear
6:53 AM 46.9 °F 37.9 °F 71% 30.03 in 10.0 mi Calm Calm - N/A   Clear
7:53 AM 50.0 °F 39.0 °F 66% 30.05 in 10.0 mi ENE 4.6 mph - N/A   Mostly Cloudy
8:53 AM 52.0 °F 39.0 °F 61% 30.05 in 10.0 mi East 6.9 mph - N/A   Overcast
9:19 AM 53.6 °F 41.0 °F 62% 30.05 in 10.0 mi East 6.9 mph - N/A   Mostly Cloudy
9:53 AM 55.0 °F 41.0 °F 59% 30.06 in 10.0 mi ENE 4.6 mph - N/A   Clear
10:53 AM 57.0 °F 39.9 °F 53% 30.04 in 10.0 mi East 5.8 mph - N/A   Clear
11:53 AM 57.9 °F 37.0 °F 46% 30.02 in 10.0 mi South 4.6 mph - N/A   Clear
12:53 PM 60.1 °F 34.0 °F 38% 30.00 in 10.0 mi Calm Calm - N/A   Mostly Cloudy
1:40 PM 62.6 °F 33.8 °F 34% 29.99 in 2.5 mi Calm Calm - N/A   Haze
1:49 PM 60.8 °F 33.8 °F 36% 29.99 in 10.0 mi East 3.5 mph - N/A   Mostly Cloudy
1:53 PM 61.0 °F 33.1 °F 35% 29.99 in 10.0 mi East 6.9 mph - N/A   Mostly Cloudy
2:53 PM 60.1 °F 42.1 °F 51% 29.99 in 10.0 mi West 13.8 mph - N/A   Partly Cloudy
3:53 PM 59.0 °F 37.0 °F 44% 29.99 in 10.0 mi West 9.2 mph - N/A   Clear
4:53 PM 57.0 °F 39.0 °F 51% 30.00 in 10.0 mi West 11.5 mph - N/A   Clear
5:53 PM 55.0 °F 39.9 °F 57% 30.02 in 10.0 mi West 9.2 mph - N/A   Clear
6:53 PM 55.0 °F 43.0 °F 64% 30.04 in 10.0 mi West 6.9 mph - N/A   Clear
7:53 PM 55.9 °F 39.0 °F 53% 30.07 in 10.0 mi Variable 3.5 mph - N/A   Clear
8:53 PM 55.0 °F 34.0 °F 45% 30.08 in 10.0 mi WNW 5.8 mph - N/A   Clear
9:53 PM 54.0 °F 34.0 °F 47% 30.08 in 10.0 mi Calm Calm - N/A   Clear
10:53 PM 53.1 °F 32.0 °F 45% 30.10 in 10.0 mi Calm Calm - N/A   Clear
11:53 PM 51.1 °F 33.1 °F 50% 30.10 in 10.0 mi Calm Calm - N/A   Clear